• In Austria
  • List of Countries
  • For 7 days
  • Water Temperature
  • Satellite Maps
  • Weather Map
  • News
  • Weather Widgets
  • user-avatar
    Login

    Hourly Weather Macapa

    Today, 24 February, Saturday

    Time Temperature Precipitation Wind Pressure Humidity
    00:00 +25°C° 0.2 mm 1 mps 758 mmHg 96%
    01:00 +25°C° 0.3 mm 1 mps 758 mmHg 97%
    02:00 +25°C° 0.3 mm 1 mps 758 mmHg 97%
    03:00 +24°C° 0.3 mm 1 mps 757 mmHg 98%
    04:00 +24°C° 0.1 mm 1 mps 757 mmHg 98%
    05:00 +24°C° 0.1 mm 1 mps 757 mmHg 98%
    06:00 +24°C° 0.1 mm 1 mps 757 mmHg 98%
    07:00 +25°C° 0.2 mm 1 mps 758 mmHg 94%
    08:00 +27°C° 0.2 mm 1 mps 758 mmHg 90%
    09:00 +28°C° 0.2 mm 1 mps 758 mmHg 86%
    10:00 +29°C° 0.5 mm 1 mps 758 mmHg 80%
    11:00 +31°C° 0.5 mm 1 mps 758 mmHg 73%
    12:00 +32°C° 0.5 mm 1 mps 758 mmHg 67%
    13:00 +32°C° 1 mm 1 mps 757 mmHg 68%
    14:00 +32°C° 1 mm 1 mps 757 mmHg 70%
    15:00 +32°C° 1 mm 2 mps 756 mmHg 72%
    16:00 +31°C° 1.2 mm 2 mps 756 mmHg 77%
    17:00 +29°C° 1.2 mm 3 mps 756 mmHg 82%
    18:00 +28°C° 1.2 mm 3 mps 756 mmHg 88%
    19:00 +27°C° 0.9 mm 3 mps 757 mmHg 90%
    20:00 +26°C° 0.9 mm 3 mps 757 mmHg 93%
    21:00 +25°C° 0.9 mm 3 mps 758 mmHg 95%
    22:00 +25°C° 0.4 mm 3 mps 758 mmHg 96%
    23:00 +25°C° 0.4 mm 3 mps 759 mmHg 96%

    Tomorrow, 25 February, Sunday

    Time Temperature Precipitation Wind Pressure Humidity
    00:00 +25°C° 0.4 mm 3 mps 759 mmHg 96%
    01:00 +25°C° 0.8 mm 3 mps 759 mmHg 97%
    02:00 +25°C° 0.8 mm 3 mps 758 mmHg 97%
    03:00 +24°C° 0.8 mm 2 mps 758 mmHg 98%
    04:00 +24°C° 0.6 mm 2 mps 758 mmHg 98%
    05:00 +24°C° 0.6 mm 2 mps 758 mmHg 98%
    06:00 +24°C° 0.6 mm 2 mps 758 mmHg 98%
    07:00 +25°C° 0.3 mm 2 mps 758 mmHg 96%
    08:00 +26°C° 0.3 mm 2 mps 759 mmHg 94%
    09:00 +26°C° 0.3 mm 2 mps 760 mmHg 92%
    10:00 +27°C° 0.2 mm 2 mps 759 mmHg 86%
    11:00 +28°C° 0.2 mm 2 mps 759 mmHg 81%
    12:00 +30°C° 0.2 mm 1 mps 759 mmHg 76%
    13:00 +30°C° 0.2 mm 2 mps 758 mmHg 74%
    14:00 +30°C° 0.2 mm 2 mps 757 mmHg 72%
    15:00 +31°C° 0.2 mm 2 mps 757 mmHg 70%
    16:00 +30°C° 0.3 mm 1 mps 756 mmHg 74%
    17:00 +29°C° 0.3 mm 1 mps 756 mmHg 79%
    18:00 +29°C° 0.3 mm 1 mps 756 mmHg 83%
    19:00 +28°C° 0 mm 1 mps 757 mmHg 86%
    20:00 +27°C° 0 mm 1 mps 757 mmHg 90%
    21:00 +26°C° 0 mm 1 mps 758 mmHg 93%
    22:00 +26°C° 0 mm 1 mps 758 mmHg 95%
    23:00 +26°C° 0 mm 1 mps 758 mmHg 96%

    Day after tomorrow, 26 February, Monday

    Time Temperature Precipitation Wind Pressure Humidity
    00:00 +25°C° 0 mm 1 mps 759 mmHg 97%
    01:00 +25°C° 0.1 mm 1 mps 758 mmHg 97%
    02:00 +25°C° 0.1 mm 1 mps 758 mmHg 97%
    03:00 +25°C° 0.1 mm 1 mps 757 mmHg 98%
    04:00 +25°C° 0.1 mm 1 mps 757 mmHg 98%
    05:00 +25°C° 0.1 mm 1 mps 757 mmHg 98%
    06:00 +25°C° 0.1 mm 1 mps 758 mmHg 98%
    07:00 +25°C° 0.2 mm 1 mps 758 mmHg 95%
    08:00 +26°C° 0.2 mm 1 mps 759 mmHg 91%
    09:00 +27°C° 0.2 mm 1 mps 759 mmHg 88%
    10:00 +29°C° 0.7 mm 1 mps 759 mmHg 84%
    11:00 +30°C° 0.7 mm 1 mps 759 mmHg 79%
    12:00 +31°C° 0.7 mm 1 mps 759 mmHg 74%
    13:00 +31°C° 1 mm 1 mps 758 mmHg 74%
    14:00 +31°C° 1 mm 1 mps 757 mmHg 74%
    15:00 +31°C° 1 mm 1 mps 756 mmHg 73%
    16:00 +30°C° 1.2 mm 2 mps 756 mmHg 79%
    17:00 +29°C° 1.2 mm 2 mps 756 mmHg 85%
    18:00 +28°C° 1.2 mm 2 mps 756 mmHg 91%
    19:00 +27°C° 2.3 mm 2 mps 757 mmHg 92%
    20:00 +26°C° 2.3 mm 2 mps 758 mmHg 94%
    21:00 +26°C° 2.3 mm 2 mps 758 mmHg 95%
    22:00 +26°C° 1 mm 2 mps 758 mmHg 96%
    23:00 +25°C° 1 mm 2 mps 758 mmHg 96%

    27 February, Tuesday

    Time Temperature Precipitation Wind Pressure Humidity
    00:00 +25°C° 1 mm 2 mps 759 mmHg 97%
    01:00 +25°C° 1 mm 2 mps 758 mmHg 97%
    02:00 +25°C° 1 mm 2 mps 757 mmHg 97%
    03:00 +25°C° 1 mm 1 mps 757 mmHg 97%
    04:00 +25°C° 0.6 mm 1 mps 757 mmHg 97%
    05:00 +25°C° 0.6 mm 1 mps 757 mmHg 98%
    06:00 +24°C° 0.6 mm 1 mps 757 mmHg 98%
    07:00 +26°C° 0.1 mm 1 mps 758 mmHg 95%
    08:00 +27°C° 0.1 mm 1 mps 759 mmHg 91%
    09:00 +28°C° 0.1 mm 1 mps 759 mmHg 88%
    10:00 +29°C° 0.4 mm 1 mps 759 mmHg 83%
    11:00 +30°C° 0.4 mm 2 mps 759 mmHg 78%
    12:00 +31°C° 0.4 mm 2 mps 758 mmHg 73%
    13:00 +31°C° 1.4 mm 2 mps 757 mmHg 76%
    14:00 +31°C° 1.4 mm 2 mps 756 mmHg 79%
    15:00 +30°C° 1.4 mm 2 mps 755 mmHg 82%
    16:00 +29°C° 1.3 mm 2 mps 756 mmHg 85%
    17:00 +29°C° 1.3 mm 2 mps 756 mmHg 88%
    18:00 +28°C° 1.3 mm 2 mps 756 mmHg 91%
    19:00 +27°C° 2 mm 2 mps 756 mmHg 93%
    20:00 +26°C° 2 mm 2 mps 757 mmHg 94%
    21:00 +26°C° 2 mm 2 mps 758 mmHg 95%
    22:00 +26°C° 1.5 mm 2 mps 758 mmHg 95%
    23:00 +26°C° 1.5 mm 2 mps 758 mmHg 95%

    28 February, Wednesday

    Time Temperature Precipitation Wind Pressure Humidity
    00:00 +25°C° 1.5 mm 1 mps 758 mmHg 95%
    01:00 +25°C° 0.3 mm 1 mps 757 mmHg 96%
    02:00 +25°C° 0.3 mm 1 mps 757 mmHg 96%
    03:00 +25°C° 0.3 mm 1 mps 756 mmHg 96%
    04:00 +25°C° 0.1 mm 1 mps 757 mmHg 97%
    05:00 +25°C° 0.1 mm 1 mps 757 mmHg 97%
    06:00 +25°C° 0.1 mm 1 mps 757 mmHg 97%
    07:00 +26°C° 0.2 mm 1 mps 758 mmHg 95%
    08:00 +26°C° 0.2 mm 1 mps 758 mmHg 92%
    09:00 +27°C° 0.2 mm 1 mps 759 mmHg 90%
    10:00 +28°C° 1.8 mm 1 mps 758 mmHg 87%
    11:00 +29°C° 1.8 mm 1 mps 758 mmHg 83%
    12:00 +30°C° 1.8 mm 2 mps 758 mmHg 80%
    13:00 +31°C° 1.3 mm 2 mps 757 mmHg 78%
    14:00 +31°C° 1.3 mm 2 mps 756 mmHg 76%
    15:00 +31°C° 1.3 mm 2 mps 755 mmHg 74%
    16:00 +30°C° 1.1 mm 2 mps 755 mmHg 78%
    17:00 +30°C° 1.1 mm 2 mps 755 mmHg 83%
    18:00 +29°C° 1.1 mm 2 mps 755 mmHg 87%
    19:00 +28°C° 0.8 mm 2 mps 756 mmHg 90%
    20:00 +27°C° 0.8 mm 2 mps 757 mmHg 92%
    21:00 +26°C° 0.8 mm 2 mps 757 mmHg 95%
    22:00 +26°C° 1.3 mm 2 mps 758 mmHg 96%
    23:00 +26°C° 1.3 mm 2 mps 758 mmHg 96%

    1 March, Thursday

    Time Temperature Precipitation Wind Pressure Humidity
    00:00 +26°C° 1.3 mm 2 mps 758 mmHg 96%
    01:00 +26°C° 1.7 mm 2 mps 758 mmHg 97%
    02:00 +25°C° 1.7 mm 2 mps 757 mmHg 97%
    03:00 +25°C° 1.7 mm 2 mps 757 mmHg 97%
    04:00 +25°C° 0.4 mm 2 mps 757 mmHg 97%
    05:00 +25°C° 0.4 mm 2 mps 757 mmHg 98%
    06:00 +25°C° 0.4 mm 2 mps 757 mmHg 98%
    07:00 +26°C° 0 mm 2 mps 758 mmHg 94%
    08:00 +27°C° 0 mm 2 mps 758 mmHg 91%
    09:00 +28°C° 0 mm 3 mps 759 mmHg 88%
    10:00 +29°C° 0.6 mm 3 mps 759 mmHg 85%
    11:00 +30°C° 0.6 mm 3 mps 759 mmHg 81%
    12:00 +31°C° 0.6 mm 3 mps 758 mmHg 78%
    13:00 +31°C° 1.5 mm 3 mps 758 mmHg 79%
    14:00 +31°C° 1.5 mm 3 mps 757 mmHg 81%
    15:00 +31°C° 1.5 mm 3 mps 756 mmHg 82%
    16:00 +30°C° 1.1 mm 3 mps 756 mmHg 85%
    17:00 +29°C° 1.1 mm 3 mps 756 mmHg 87%
    18:00 +29°C° 1.1 mm 3 mps 756 mmHg 90%
    19:00 +28°C° 0.3 mm 3 mps 757 mmHg 92%
    20:00 +27°C° 0.3 mm 3 mps 757 mmHg 94%
    21:00 +26°C° 0.3 mm 3 mps 758 mmHg 96%
    22:00 +26°C° 0 mm 2 mps 758 mmHg 96%
    23:00 +26°C° 0 mm 2 mps 759 mmHg 96%
    Show more